Location: Chisholm
(54.9102°N, 114.1701°W)
Time: 04:11:19
(UTC+00:00)

ISS - Pass Details

Date: 03 December 2021
Orbit: 413 x 422 km, 51.6° (Epoch: 23 January)

Event Time Altitude Azimuth Distance (km) Brightness Sun altitude
Rises 02:08:51 0° 275° (W) 2,385 1.4 -24.0°
Reaches altitude 10° 02:11:14 10° 261° (W) 1,515 0.1 -24.3°
Enters shadow 02:13:49 22° 211° (SSW) 966 -1.6 -24.7°
